DROID.001

operational
NORAD ID: 56965 Int'l Des: 2023-084 Owner: TURION Country: US
LEOCIRCULARRETROGRADE

About DROID.001

Description loading...

Live Position

Loading 3D Globe...

Upcoming Passes

Altitude History

Altitude vs Time

uPlot chart will show altitude changes over time

Two-Line Element Set

1 56965U 23084AK 26058.69781743 .06855276 26279-5 71357-3 0 9990
2 56965 97.5599 216.8507 0010156 274.8261 85.1877 16.37671143152103
Epoch: Feb 27, 2026 • Age: 85 hours

Current Status

Altitude 48.2 km
Velocity 7.88 km/s
Sub-Earth Point -23.30°S, 25.21°W
Launch Date Jun 12, 2023
Age 2.7 years
Type other

Technical Details

Classification Payload
Mass 32.00 kg
Dry Mass 32.00 kg
Total Mass 32.00 kg
Length 0.30 m
Diameter 0.40 m
Span 0.90 m
Shape Box + 2 pan
Manufacturer NANAV
Bus Type Cubesat MP42H
Phase Status In Orbit
Owner/State TURION/US

Large Constellations

Loading constellations...